Temperature
12 12 12 12 12 11 11 11 11 11 11 11 11 11 11 10 10 10 11 10 10 10 10 10 10 10 10 10 10 10 10 10 10 10 10 10 10 10 10 10 10 10 10
12 12 12 11 11 11 11 11 11 11 11 10 10 10 10 10 10 10 10 10 10 10 10 9 9 10 10 10 10 10 10 10 10 10 10 10 10 10 10 10 10 9 9
11 11 11 11 11 11 11 11 10 10 10 10 10 10 10 10 10 10 10 9 9 9 9 9 9 9 9 9 9 9 9 9 9 9 9 9 9 9 9 9 9 9 9
11 11 11 11 11 10 10 10 10 10 10 10 10 10 10 9 9 9 9 9 9 9 9 9 9 9 9 9 9 9 9 9 9 9 9 9 9 9 9 9 9 9 9
11 11 11 10 10 10 10 10 10 10 9 9 9 9 9 9 9 8 8 8 8 8 8 8 8 8 8 8 8 8 8 8 8 8 8 8 8 8 8 8 8 8 8
10 10 10 10 10 10 10 9 9 9 9 9 8 8 8 8 8 8 8 8 8 8 8 8 8 8 8 8 8 8 8 7 7 8 7 7 7 7 7 7 7 7 7
10 9 9 9 9 9 9 9 9 9 8 8 8 8 8 8 8 7 7 7 7 7 7 7 7 7 7 7 7 7 7 7 7 7 7 7 6 6 6 6 6 6 7
9 9 9 9 9 9 8 8 8 8 8 7 7 7 7 7 7 7 7 7 7 7 7 7 7 7 7 7 7 6 6 6 6 6 6 6 6 6 6 6 6 6 6
8 8 8 8 8 8 8 8 8 7 7 7 6 6 6 6 6 6 7 7 6 6 6 6 6 6 6 6 6 6 6 6 6 6 6 5 5 5 5 5 6 5 5
8 8 8 7 7 7 7 7 7 7 6 6 6 6 6 5 5 5 6 6 6 6 6 5 5 5 5 5 5 5 5 5 5 5 5 5 5 5 5 5 5 5 5
7 7 7 7 7 7 6 6 6 6 6 6 5 5 5 5 5 5 5 5 5 5 5 5 5 5 5 5 5 5 5 5 5 5 5 5 5 4 5 5 4 4 4
7 6 6 6 6 6 6 6 6 5 5 5 5 5 5 4 4 4 4 4 4 5 5 4 4 4 4 4 4 4 4 4 4 4 4 4 4 4 4 4 4 4 4
6 6 6 6 6 6 5 5 5 5 5 5 4 4 4 4 4 4 3 3 3 3 4 4 4 4 3 3 3 3 4 4 4 4 4 4 4 4 3 3 3 3 3
5 5 5 5 5 5 5 5 4 4 4 4 4 4 4 4 3 3 3 3 2 3 3 3 3 3 3 3 3 3 3 3 3 3 3 3 3 3 3 3 3 3 3
5 5 5 4 4 4 4 4 4 4 4 4 4 3 3 3 3 3 2 2 2 1 2 2 2 2 2 2 2 2 2 2 2 2 2 2 2 2 2 2 2 2 2
4 4 4 4 4 4 4 3 3 3 3 3 3 3 3 2 2 2 2 1 1 1 1 1 1 1 1 1 1 2 2 2 2 2 2 2 2 2 2 2 2 2 2
4 4 3 3 3 3 3 3 3 3 3 3 3 2 2 2 2 2 1 1 1 1 0 1 1 1 1 1 1 1 1 1 1 1 1 1 1 1 1 1 1 1 1
3 3 3 3 3 2 2 2 2 2 2 2 2 2 2 2 1 1 1 1 1 0 -0 0 0 0 0 0 0 0 1 1 1 1 1 1 1 1 1 1 1 1 1
2 2 2 2 2 2 2 2 2 2 2 2 1 1 1 1 1 1 0 0 0 -0 -0 -1 -1 -0 -0 -0 -0 -0 0 0 0 0 0 0 0 0 0 0 0 0 0
2 2 2 2 1 1 1 1 1 1 1 1 1 1 1 0 0 0 -0 -0 -0 -1 -1 -1 -1 -1 -1 -1 -1 -1 -0 -0 -0 0 0 -0 -0 -0 -0 -0 -0 -0 -1
1 1 1 1 1 1 1 1 1 1 1 0 0 0 0 -0 -0 -0 -1 -1 -1 -1 -1 -1 -2 -2 -2 -2 -2 -2 -2 -1 -1 -1 -0 -0 -1 -0 -0 -1 -1 -1 -1
1 1 1 0 0 0 -0 -0 -0 -0 -0 -0 -0 -0 -0 -1 -1 -1 -1 -1 -2 -2 -2 -2 -2 -2 -2 -2 -2 -2 -2 -2 -2 -2 -2 -1 -1 -1 -1 -1 -1 -2 -2
0 0 0 -0 -0 -0 -1 -1 -1 -1 -1 -1 -1 -1 -1 -1 -1 -1 -1 -2 -2 -2 -2 -2 -3 -3 -3 -3 -3 -3 -3 -3 -3 -2 -2 -2 -2 -2 -1 -2 -2 -2 -2
-0 -0 -1 -1 -1 -1 -1 -1 -1 -1 -1 -1 -1 -1 -2 -2 -2 -2 -2 -2 -2 -2 -2 -3 -3 -3 -3 -3 -3 -3 -3 -3 -3 -3 -3 -3 -2 -2 -2 -2 -2 -2 -2
-1 -1 -1 -1 -1 -1 -1 -2 -2 -2 -2 -2 -2 -2 -2 -2 -2 -2 -3 -2 -2 -2 -3 -3 -3 -3 -3 -3 -3 -4 -4 -4 -4 -3 -3 -4 -3 -3 -2 -2 -2 -3 -3
-2 -2 -2 -2 -2 -2 -2 -2 -2 -2 -2 -2 -2 -2 -2 -3 -3 -3 -3 -3 -3 -3 -3 -3 -3 -3 -3 -3 -4 -4 -4 -4 -4 -4 -4 -4 -4 -4 -4 -3 -3 -3 -3
Wind_Speed
3 3 3 3 3 3 2 2 2 2 2 2 2 1 1 1 1 1 2 2 2 1 1 2 2 2 2 1 1 0 1 1 2 2 3 3 3 3 4 4 5 5 5
4 3 3 2 2 2 2 2 1 1 1 2 2 1 1 1 1 1 1 1 1 1 1 2 2 3 4 3 2 1 1 1 1 2 2 3 3 4 5 5 5 5 6
5 4 2 2 1 1 2 2 2 2 2 2 2 2 1 1 2 1 1 1 1 1 1 2 3 4 5 4 3 3 2 2 2 2 2 3 4 4 5 5 5 6 6
5 4 3 1 1 2 2 1 1 1 1 1 1 2 2 1 1 1 1 1 1 0 1 2 3 4 5 5 4 3 3 3 2 3 3 4 4 5 5 5 6 6 6
5 4 3 2 2 2 2 1 1 1 1 1 1 1 1 1 1 1 1 1 1 0 1 1 3 3 4 5 5 5 4 4 4 5 5 5 5 6 6 6 7 7 7
4 4 3 2 2 2 1 1 1 1 1 0 1 2 2 2 1 1 1 1 2 1 1 1 2 3 4 5 6 7 7 6 6 6 6 6 7 7 8 8 8 8 8
3 3 2 2 2 1 0 0 0 1 1 1 1 2 3 2 1 1 1 1 2 2 2 2 2 2 3 5 6 8 9 9 8 8 8 8 8 8 9 9 9 9 10
2 3 2 1 1 1 1 0 1 1 0 1 1 1 1 2 2 2 1 1 2 2 3 3 2 3 3 4 6 8 9 10 10 9 9 9 9 10 10 10 10 10 10
3 2 2 2 1 1 1 0 0 1 1 0 0 2 2 3 2 2 2 1 2 2 2 3 3 3 3 4 5 7 9 10 10 10 10 10 10 11 12 11 11 10 10
2 2 2 1 1 1 1 1 0 1 1 1 1 0 1 2 1 2 2 2 2 2 3 3 3 4 4 5 6 8 9 10 10 11 10 10 11 11 11 10 10 10 10
2 2 1 1 0 0 1 1 1 1 1 1 1 1 1 0 1 1 3 3 3 3 3 3 3 3 5 5 6 8 9 10 10 11 11 11 12 11 11 10 10 11 11
1 1 1 1 1 0 1 1 1 1 2 1 1 1 1 1 2 2 3 3 3 3 3 2 2 3 4 5 6 8 9 9 11 11 11 11 11 11 11 11 11 12 12
1 1 1 1 1 1 1 0 1 1 2 2 2 2 2 1 1 1 2 2 3 3 3 2 2 3 4 5 7 9 9 10 11 12 12 11 11 11 11 11 12 13 13
2 2 1 1 1 1 0 0 0 1 0 1 1 1 1 1 1 1 1 1 3 3 2 3 2 3 4 6 8 9 8 10 11 12 11 11 11 11 12 12 12 13 13
1 1 0 1 1 0 0 0 0 1 0 1 1 1 1 1 1 1 1 1 2 3 4 3 2 3 5 6 8 8 8 10 11 12 12 11 12 12 12 12 12 12 12
1 0 1 0 1 1 0 0 0 1 1 1 1 1 1 1 1 1 1 2 2 3 4 2 3 3 5 6 8 8 9 11 11 12 12 12 12 12 11 11 11 11 11
1 0 1 0 0 1 1 1 1 1 1 1 1 1 2 2 1 1 1 1 2 2 5 4 3 3 3 4 7 8 8 8 9 11 12 12 11 11 11 11 11 11 12
1 1 1 1 0 0 0 1 1 1 2 2 2 2 2 2 2 2 2 2 3 3 3 5 4 3 4 4 5 6 7 8 8 11 12 12 12 11 11 11 11 11 12
1 1 1 1 1 1 1 1 2 2 2 3 3 3 3 2 3 2 3 3 3 3 3 4 5 3 3 3 4 5 6 5 8 9 10 11 12 12 12 12 12 12 12
1 1 1 1 1 1 1 2 2 2 2 3 3 3 4 4 4 4 4 4 3 3 3 4 5 4 3 3 3 4 5 5 5 6 8 10 11 12 12 12 12 12 12
1 1 1 1 2 1 2 2 2 2 2 3 3 3 4 4 5 4 4 3 3 3 3 4 5 4 4 4 4 3 5 6 5 4 5 6 7 6 8 11 11 11 11
1 1 1 1 2 2 3 3 2 2 3 3 3 3 4 4 5 6 6 6 5 4 4 4 5 6 6 5 5 5 5 6 5 3 3 6 5 5 6 7 10 11 11
1 1 1 2 2 3 4 4 3 2 2 3 3 3 3 4 5 4 5 6 6 8 7 6 6 7 7 6 5 6 5 6 7 5 4 6 4 6 6 8 11 11 11
1 1 2 2 2 3 4 4 4 2 2 3 3 4 4 4 5 4 4 4 5 6 7 6 6 7 7 6 5 6 6 7 6 5 3 5 4 5 6 7 10 10 10
1 1 1 2 2 3 5 4 4 2 2 3 4 4 4 5 7 6 4 4 5 6 7 8 8 9 9 9 7 4 4 5 6 5 2 3 4 5 5 5 7 10 10
1 1 2 2 2 3 5 4 4 2 2 3 3 4 5 6 7 7 4 4 6 6 5 6 6 7 7 8 8 5 4 5 5 4 2 2 3 4 4 3 4 6 7
Wind_Direction
118 114 109 104 99 92 84 74 59 41 30 16 12 14 14 39 93 97 78 75 66 35 2 352 338 332 330 299 292 140 39 21 26 19 13 12 5 357 350 344 341 335 329
118 113 100 92 88 96 100 100 86 55 31 30 15 15 35 65 108 91 94 55 43 30 333 323 322 314 312 298 272 257 280 330 347 1 348 339 344 345 344 341 340 337 329
112 112 103 85 77 94 95 82 68 58 39 26 346 353 49 76 95 103 102 88 42 7 331 305 306 303 300 303 277 270 269 281 279 311 329 331 336 333 330 331 329 322 323
112 106 93 83 69 72 83 90 83 78 45 17 347 337 2 36 77 121 128 125 110 13 335 309 299 307 306 300 295 285 290 288 279 289 300 306 312 312 314 317 321 319 316
108 108 102 89 83 69 50 60 74 118 99 355 334 350 337 325 337 77 88 96 102 79 332 333 310 308 306 307 307 301 287 285 281 282 286 294 299 300 302 303 303 306 306
104 104 99 91 87 72 49 43 71 57 86 10 17 5 334 308 341 23 34 58 62 48 356 329 329 305 304 303 302 303 295 286 284 280 283 288 291 292 294 296 293 296 299
103 105 97 88 80 91 111 108 94 83 37 30 58 3 338 328 335 335 15 31 27 16 2 338 318 310 304 301 301 300 300 289 288 286 285 287 287 288 289 292 291 292 294
99 107 104 112 100 98 67 57 89 122 35 60 116 119 317 325 332 327 327 340 355 1 350 332 326 319 305 305 300 298 300 296 293 293 288 288 287 288 288 288 288 289 292
70 83 106 114 111 138 162 205 147 154 203 297 93 151 178 237 299 308 315 334 331 331 327 320 316 312 304 302 300 299 298 299 295 295 294 292 289 288 288 287 287 286 290
58 57 72 111 129 137 152 204 169 198 174 212 278 277 200 177 201 291 306 318 316 309 309 318 312 306 303 302 300 299 300 304 297 299 296 297 296 295 294 293 295 295 295
45 40 33 43 96 160 210 226 217 176 186 199 208 221 234 266 187 216 279 307 317 299 294 291 298 304 307 311 309 303 302 303 302 297 296 296 297 297 295 295 296 296 298
13 15 357 1 348 282 240 237 224 203 208 217 220 205 197 202 211 210 247 283 294 295 295 282 280 297 310 322 315 313 308 304 305 299 297 296 298 298 296 295 298 297 295
289 278 299 312 314 285 251 237 221 217 211 209 223 234 228 236 217 216 241 281 290 295 296 289 276 289 313 319 314 314 312 311 310 306 300 296 294 295 294 293 294 295 296
245 255 245 264 278 294 284 160 214 255 243 219 236 238 234 257 242 225 219 241 291 289 280 280 294 282 314 318 314 316 313 311 309 307 300 296 294 296 293 291 291 292 293
266 291 282 261 281 319 354 134 201 255 255 236 251 247 246 266 267 260 247 223 235 281 284 275 286 306 312 311 312 312 307 305 302 300 300 295 292 291 290 289 291 293 295
325 327 355 332 304 300 318 210 232 260 228 255 248 246 254 269 276 272 262 255 231 239 268 275 275 300 308 311 313 313 304 307 304 299 296 292 288 288 290 291 293 294 295
354 347 334 297 252 281 267 223 239 233 235 259 266 248 253 255 263 284 287 281 267 247 265 285 279 292 298 301 308 309 305 302 301 302 298 296 291 292 293 291 291 292 293
351 343 327 329 311 262 264 240 260 261 244 249 257 253 257 256 259 268 264 265 264 256 253 281 293 294 289 292 295 299 306 304 300 299 298 299 296 291 290 290 292 293 294
337 350 350 342 328 295 244 237 245 255 250 248 243 238 247 243 257 260 260 262 264 273 261 269 285 289 288 293 303 303 303 299 302 300 298 299 298 293 292 291 292 293 292
340 339 337 325 311 305 269 245 237 244 261 262 253 242 242 237 241 249 256 258 264 270 271 271 282 289 286 292 299 304 310 305 302 302 298 299 298 295 293 292 291 290 289
339 331 341 328 316 300 276 266 249 252 257 267 273 263 253 250 253 255 260 251 252 257 264 273 281 287 288 300 299 296 297 303 295 283 293 294 293 289 288 291 292 290 291
327 328 315 304 308 307 306 304 290 256 255 260 270 275 274 274 273 279 278 273 266 261 260 260 273 277 280 280 281 287 290 299 297 289 298 294 285 279 282 282 290 294 296
276 299 292 298 294 294 305 306 306 284 256 258 260 268 280 285 289 270 278 286 285 282 273 262 263 268 273 272 276 281 279 278 276 284 293 286 279 278 282 287 290 292 295
253 263 283 287 290 297 307 306 309 300 275 268 259 251 254 267 268 270 261 271 273 275 273 264 253 260 264 266 259 266 272 279 277 274 256 274 286 283 289 287 285 287 293
269 270 271 276 283 295 304 307 316 284 276 279 276 268 259 260 275 284 273 270 279 279 282 278 277 282 288 291 289 282 283 287 285 280 253 257 282 295 289 274 280 287 294
249 269 284 280 268 275 292 303 308 273 272 279 283 282 279 276 285 289 270 263 271 274 277 287 288 291 290 290 291 272 261 271 280 280 259 267 281 307 302 279 274 285 293
Height
1532 1533 1533 1534 1534 1534 1534 1534 1534 1534 1534 1534 1534 1534 1534 1534 1533 1533 1533 1533 1533 1532 1532 1532 1532 1532 1532 1531 1531 1530 1529 1529 1528 1528 1527 1527 1526 1525 1525 1524 1524 1523 1523
1531 1531 1532 1532 1532 1532 1533 1533 1533 1533 1533 1532 1532 1532 1532 1532 1532 1531 1531 1531 1531 1530 1530 1530 1530 1529 1529 1529 1528 1528 1527 1527 1526 1525 1525 1524 1524 1523 1522 1522 1521 1521 1520
1530 1530 1530 1530 1530 1530 1531 1531 1531 1531 1531 1530 1530 1530 1530 1530 1530 1529 1529 1529 1528 1528 1528 1527 1527 1527 1527 1526 1526 1525 1525 1524 1524 1523 1522 1521 1521 1520 1519 1519 1518 1518 1517
1528 1528 1528 1528 1528 1528 1528 1528 1528 1528 1528 1528 1528 1528 1528 1527 1527 1527 1527 1526 1526 1526 1525 1525 1524 1524 1523 1523 1522 1522 1521 1521 1520 1520 1519 1518 1518 1517 1517 1516 1515 1514 1514
1525 1526 1526 1526 1526 1526 1526 1526 1526 1526 1525 1525 1525 1525 1525 1525 1525 1524 1524 1524 1523 1523 1522 1522 1521 1521 1520 1520 1519 1519 1518 1518 1517 1517 1516 1515 1515 1514 1513 1513 1512 1511 1510
1523 1523 1523 1523 1523 1523 1523 1523 1523 1523 1523 1523 1522 1522 1522 1522 1522 1522 1522 1521 1521 1520 1520 1519 1519 1518 1517 1517 1516 1516 1515 1515 1514 1513 1512 1512 1511 1511 1510 1509 1508 1508 1507
1521 1521 1521 1521 1521 1521 1521 1521 1521 1520 1520 1520 1520 1519 1519 1520 1519 1519 1519 1518 1518 1517 1517 1516 1515 1515 1514 1513 1513 1512 1512 1511 1510 1510 1509 1508 1507 1507 1506 1505 1504 1504 1503
1518 1518 1518 1518 1518 1518 1518 1518 1518 1517 1517 1517 1517 1517 1517 1517 1516 1516 1516 1515 1515 1514 1514 1513 1512 1511 1510 1510 1509 1509 1508 1507 1506 1506 1505 1504 1503 1503 1502 1501 1501 1500 1499
1515 1516 1516 1515 1515 1515 1515 1515 1515 1515 1514 1515 1515 1516 1515 1513 1513 1512 1512 1512 1511 1511 1510 1510 1509 1508 1507 1506 1505 1505 1504 1504 1503 1502 1501 1500 1499 1499 1498 1497 1496 1495 1494
1512 1512 1513 1513 1513 1512 1512 1512 1512 1512 1512 1512 1512 1512 1513 1511 1511 1509 1509 1509 1508 1508 1507 1506 1505 1504 1503 1502 1501 1501 1500 1500 1499 1498 1497 1496 1495 1494 1494 1493 1492 1491 1490
1509 1509 1509 1510 1509 1509 1509 1509 1509 1509 1509 1509 1509 1509 1509 1508 1508 1507 1505 1505 1504 1504 1503 1502 1502 1500 1499 1498 1497 1497 1496 1495 1494 1493 1493 1492 1491 1490 1489 1488 1487 1486 1485
1506 1506 1506 1506 1506 1506 1506 1506 1506 1505 1505 1506 1506 1505 1505 1505 1504 1504 1502 1501 1500 1500 1500 1499 1498 1497 1495 1494 1493 1492 1492 1491 1490 1489 1488 1487 1486 1485 1484 1483 1482 1481 1481
1503 1503 1503 1503 1503 1503 1502 1502 1502 1502 1502 1502 1502 1502 1502 1502 1502 1501 1500 1498 1497 1496 1496 1495 1494 1493 1491 1491 1489 1488 1487 1486 1485 1484 1483 1482 1481 1480 1479 1478 1477 1476 1475
1499 1500 1500 1500 1500 1500 1499 1499 1499 1499 1499 1499 1499 1499 1498 1498 1498 1498 1497 1496 1494 1493 1492 1491 1490 1489 1488 1487 1486 1484 1483 1482 1481 1480 1479 1477 1476 1475 1474 1473 1472 1471 1470
1496 1496 1496 1496 1496 1496 1496 1496 1496 1495 1495 1495 1495 1495 1495 1495 1495 1494 1494 1494 1493 1490 1488 1487 1487 1486 1484 1483 1482 1480 1479 1477 1476 1475 1474 1472 1471 1470 1469 1468 1467 1466 1465
1493 1493 1492 1492 1492 1492 1492 1492 1492 1492 1492 1491 1491 1492 1491 1491 1491 1491 1490 1490 1489 1488 1486 1484 1483 1482 1481 1479 1478 1476 1475 1473 1471 1470 1469 1467 1466 1465 1464 1463 1462 1461 1459
1490 1489 1489 1489 1489 1489 1489 1488 1488 1488 1488 1488 1487 1488 1488 1488 1487 1487 1486 1486 1485 1484 1482 1480 1480 1478 1477 1475 1474 1472 1470 1468 1467 1465 1464 1463 1461 1460 1459 1458 1457 1456 1454
1487 1486 1486 1485 1485 1485 1485 1485 1485 1484 1484 1484 1484 1484 1484 1484 1483 1483 1482 1481 1481 1480 1479 1476 1475 1474 1473 1471 1470 1468 1466 1464 1462 1461 1459 1458 1457 1455 1454 1453 1452 1450 1449
1484 1483 1483 1482 1482 1482 1482 1482 1482 1481 1481 1481 1481 1480 1480 1480 1479 1479 1478 1477 1476 1476 1475 1473 1471 1470 1468 1467 1465 1463 1462 1460 1458 1456 1455 1453 1452 1450 1449 1447 1446 1445 1443
1481 1481 1480 1479 1479 1479 1479 1478 1478 1478 1478 1477 1477 1476 1476 1476 1475 1475 1474 1473 1473 1472 1471 1469 1467 1465 1464 1463 1461 1458 1456 1455 1453 1452 1450 1448 1447 1445 1443 1442 1440 1439 1437
1478 1478 1477 1477 1476 1476 1475 1475 1475 1474 1474 1474 1473 1473 1473 1472 1472 1471 1470 1469 1469 1468 1467 1465 1463 1461 1460 1458 1457 1454 1452 1450 1448 1446 1444 1443 1441 1439 1438 1436 1434 1433 1431
1475 1475 1474 1474 1473 1473 1472 1472 1472 1471 1471 1470 1470 1469 1469 1468 1468 1467 1467 1466 1465 1464 1463 1461 1459 1458 1456 1455 1453 1451 1449 1446 1443 1442 1439 1437 1436 1433 1432 1430 1429 1427 1425
1472 1472 1471 1471 1470 1470 1469 1469 1469 1468 1467 1467 1466 1465 1465 1464 1464 1463 1462 1461 1461 1460 1459 1458 1455 1454 1452 1451 1449 1447 1445 1442 1439 1437 1435 1431 1430 1428 1426 1424 1423 1422 1420
1469 1468 1468 1467 1467 1467 1466 1466 1465 1465 1464 1463 1463 1462 1461 1460 1460 1459 1458 1457 1456 1455 1454 1453 1451 1449 1448 1446 1445 1443 1440 1437 1435 1433 1431 1427 1424 1422 1421 1419 1418 1416 1414
1466 1465 1465 1464 1464 1463 1463 1463 1462 1461 1460 1459 1459 1458 1458 1457 1456 1456 1455 1453 1451 1450 1450 1448 1447 1445 1443 1442 1440 1438 1435 1433 1429 1427 1426 1423 1419 1417 1414 1413 1412 1411 1409
1462 1462 1461 1461 1461 1460 1460 1459 1459 1457 1456 1455 1455 1454 1454 1453 1453 1452 1451 1449 1447 1446 1445 1443 1441 1440 1438 1436 1435 1433 1431 1428 1425 1422 1421 1419 1416 1414 1409 1406 1406 1405 1403